Regional Weather Roundup
Issued by NWS Albany, NY

Home | Current Version | Previous Version | Text Only | Print | Product List | Glossary On
Versions: 1 2 3 4 5 6 7 8 9 10 11 12 13 14 15 16 17 18 19 20 21 22 23 24 25 26 27
000
ASUS41 KALY 272210
RWRALY

NEW YORK STATE HOURLY WEATHER ROUNDUP
NATIONAL WEATHER SERVICE ALBANY NY
600 PM EDT SAT AUG 27 2016

NOTE: "FAIR" INDICATES FEW OR NO CLOUDS BELOW 12,000 FEET WITH NO
SIGNIFICANT WEATHER AND/OR NO OBSTRUCTIONS TO VISIBILITY.

NYZ032-033-038>043-046>054-057>066-NYZ062>081-082-084-272300-
EAST


CITY           SKY/WX    TMP DP  RH WIND       PRES   REMARKS
ALBANY         MOSUNNY   84  62  47 VRB3      30.16S
GLENS FALLS    SUNNY     82  64  54 SE3       30.17S
POUGHKEEPSIE   SUNNY     85  57  38 CALM      30.15S
NEWBURGH       MOSUNNY   84  66  54 CALM      30.19S
MONTGOMERY     SUNNY     85  65  51 S5        30.16F
WHITE PLAINS   SUNNY     82  60  47 SE6       30.18S
ISLIP          PTSUNNY   83  54  36 SE8       30.18R
NEW YORK CITY  PTSUNNY   86  58  38 SE13      30.17R
CENTRAL PARK   SUNNY     82  58  43 VRB5      30.20S
$$

NYZ005>009-017-018-044>046-055-056-272300-
CENTRAL


CITY           SKY/WX    TMP DP  RH WIND       PRES   REMARKS
FULTON         SUNNY     80  65  59 N6        30.17S
SYRACUSE       MOSUNNY   80  65  59 NE5       30.15S
ROME           SUNNY     82  60  47 SE3       30.17F
ELMIRA         SUNNY     86  66  51 N3        30.15R
BINGHAMTON     SUNNY     80  62  54 W3        30.21R
MONTICELLO     SUNNY     81  63  54 MISG      30.23S
$$

NYZ026>034-041>043-087-272300-
NORTH


CITY           SKY/WX    TMP DP  RH WIND       PRES   REMARKS
WATERTOWN      SUNNY     78  60  53 SW8       30.17S
FORT DRUM      NOT AVBL
MASSENA        SUNNY     78  57  48 NE8       30.19S
SARANAC LAKE   SUNNY     75  57  53 VRB7      30.21S
PLATTSBURGH    SUNNY     77  60  55 NE7       30.19S
$$

NYZ001>004-010>016-019>021-085-272300-
WEST


CITY           SKY/WX    TMP DP  RH WIND       PRES   REMARKS
NIAGARA FALLS  MOSUNNY   82  61  48 NE12      30.16R
BUFFALO        PTSUNNY   82  63  52 N14       30.16R
DUNKIRK        SUNNY     83  66  56 N7        30.15R
JAMESTOWN      SUNNY     81  61  50 S7        30.21R
WELLSVILLE     PTSUNNY   80  59  48 SW10      30.25R
ROCHESTER      MOSUNNY   79  59  50 NE9       30.17R
PENN YAN       SUNNY     82  63  52 E5        30.17S
$$

             KEY
       WCI = WIND CHILL INDEX
       VSB = VISIBILITY
       HX  = HEAT INDEX
$$




USA.gov is the U.S. government's official web portal to all federal, state and local government web resources and services.